Regional Weather Roundup
Issued by NWS

Home | Current Version | Previous Version | Graphics & Text | Print | Product List | Glossary On
Versions: 1 2 3 4 5 6 7 8 9 10 11 12 13 14 15 16 17 18 19 20 21 22 23 24 25 26 27 28 29 30 31 32 33 34 35 36 37 38 39 40 41 42 43 44 45 46 47 48 49 50
000
ASUS43 KMPX 070510
RWRMN
WEATHER ROUNDUP FOR MINNESOTA
NATIONAL WEATHER SERVICE TWIN CITIES/CHANHASSEN MN
1100 PM CST TUE DEC 06 2016


NOTE: "FAIR" INDICATES FEW OR NO CLOUDS BELOW 12,000 FEET WITH NO
SIGNIFICANT WEATHER AND/OR OBSTRUCTIONS TO VISIBILITY. N/A MEANS
CURRENT SKY AND/OR WEATHER CONDITIONS ARE NOT AVAILABLE.

MNZ060>063-068>070-070600-
   Twin Cities Metro

CITY           SKY/WX    TMP DP  RH WIND       PRES   REMARKS
TWIN CITIES    FLURRIES  18   9  68 W17G33    29.85R WCI   3
ST PAUL        FLURRIES  19  11  70 SW21G28   29.86R WCI   3
CRYSTAL        FLURRIES  19   9  65 W17G28    29.83R WCI   4
BLAINE         FLURRIES  21  12  68 W18G24    29.81R WCI   6
LAKEVILLE      FLURRIES  16  10  79 W18G25    29.87R WCI  -1
EDEN PRAIRIE   CLOUDY    18   9  68 W13G28    29.85R WCI   5
SOUTH ST PAUL  FLURRIES  19  11  70 SW15G24   29.85R WCI   5
LAKE ELMO      FLURRIES  21  14  73 SW16G22   29.83R WCI   7
$$
MNZ001>005-007-008-013>017-022>024-027-028-070600-
   Northwest Minnesota

CITY           SKY/WX    TMP DP  RH WIND       PRES   REMARKS
BEMIDJI        LGT SNOW  18  15  86 W26       29.55R WCI   0
HALLOCK        LGT SNOW  21  19  93 NW31G41   29.61R VSB 1   WCI   3
ROSEAU         CLOUDY    27  21  80 NW10      29.50R WCI  17
WARROAD        CLOUDY    25  19  80 W10       29.48R WCI  15
THIEF RVR FALL LGT SNOW  19  16  88 W23       29.61R FOG     WCI   2
CROOKSTON      LGT SNOW  18  16  93 NW33      29.68R VSB 3/4 WCI  -3
FOSSTON        LGT SNOW  16  14  93 W22G29    29.63R WCI  -2
DETROIT LAKES  LGT SNOW  14  12  92 W29G36    29.71R VSB 1   WCI  -7
MOORHEAD       MIX PCPN  14   9  79 W32G39    29.79R WCI  -7
PARK RAPIDS    LGT SNOW  16   9  74 W23G31    29.63R WCI  -2
$$
MNZ006-009>011-018-025>026-070600-
   North Central Minnesota

CITY           SKY/WX    TMP DP  RH WIND       PRES   REMARKS
BAUDETTE       FLURRIES  22  18  85 W5        29.46R WCI  16
FLAG ISLAND    LGT SNOW  21  21 100 SW6       29.44S WCI  14
INTL FALLS     LGT SNOW  19  16  88 W5        29.46R FOG     WCI  12
WASKISH        CLOUDY    25  21  86 W13       29.48R WCI  13
BIG FORK       FLURRIES  23  19  86 SW7       29.48R WCI  15
LONGVILLE      FLURRIES  19  16  86 W12G21    29.58R WCI   7
GRAND RAPIDS   FLURRIES  21  17  84 W14G22    29.54R WCI   8
CRANE LAKE     CLOUDY    19  18  93 SW5       29.47R WCI  13
ORR            FLURRIES  19  16  86 W7        29.44R WCI  10
COOK           LGT SNOW  21  18  86 W8        29.47R WCI  12
$$
MNZ012-019>021-037-070600-
   Northeast Minnesota

CITY           SKY/WX    TMP DP  RH WIND       PRES   REMARKS
DULUTH         LGT SNOW  20  16  84 W20       29.53R BLWGSNOWWCI   4
ELY            FLURRIES  19  19 100 SW6       29.44R WCI  11
HIBBING        LGT SNOW  21  19  92 SW6       29.49R FOG     WCI  13
EVELETH        LGT SNOW  23  19  86 W9        29.49R WCI  13
DULUTH HARBOR  FLURRIES  25  19  80 SW24G30   29.59R WCI   9
TWO HARBORS    LGT SNOW  25  18  74 SW14G20   29.51R WCI  13
SILVER BAY     CLOUDY    21  19  93 SW10G16   29.49R WCI  10
GRAND MARAIS     N/A     26  22  84 W12G20    29.51S WCI  16
G MARAIS ARPRT LGT SNOW  18  12  79 S7        29.43S WCI   8
$$
MNZ029>031-032-039>041-046>048-054>057-064-070600-
   West Central Minnesota

CITY           SKY/WX    TMP DP  RH WIND       PRES   REMARKS
FERGUS FALLS   LGT SNOW  12  10  92 W26G32    29.86R WCI  -8
WHEATON        CLOUDY    16  10  79 W24G31    29.90R WCI  -3
MORRIS         FLURRIES  16   9  73 W26G40    29.86R WCI  -3
ALEXANDRIA     LGT SNOW  13  10  88 W31G40    29.79R VSB 1   WCI  -9
ELBOW LAKE     LGT SNOW  12  10  91 NW20G30   29.84R WCI  -6
WADENA         LGT SNOW  14  10  85 W17G29    29.70R WCI  -3
GLENWOOD       LGT SNOW  14  10  85 W30G38    29.81R WCI  -7
APPLETON       MOCLDY    16   9  73 W22G28    29.91R WCI  -2
BENSON         FLURRIES  16   9  73 NW23G33   29.87R WCI  -2
ORTONVILLE     CLEAR     14   7  73 W18G32    29.91R WCI  -3
MADISON        CLOUDY    16   9  73 W23G32    29.94R WCI  -2
WILLMAR        FLURRIES  18  12  79 W24G32    29.88R WCI   0
$$
MNZ033>034-036-042>043-049>051-058-059-070600-
   Central Minnesota

CITY           SKY/WX    TMP DP  RH WIND       PRES   REMARKS
ST CLOUD       FLURRIES  17  12  80 W22G28    29.79R WCI   0
PAYNESVILLE    FLURRIES  16  11  82 W24G30    29.84R WCI  -2
AITKIN         FLURRIES  21  12  68 SW14G24   29.61R WCI   8
PINE RIVER     LGT SNOW  16  10  79 W10G22    29.67R WCI   3
BRAINERD       LGT SNOW  17  12  80 W24G31    29.67R WCI  -1
STAPLES        LGT SNOW  14  10  85 W21G28    29.70R WCI  -4
LONG PRAIRIE   LGT SNOW  16  10  79 SW15G31   29.76R WCI   1
LITTLE FALLS   FLURRIES  19  10  68 W16G24    29.74R WCI   5
LITCHFIELD     FLURRIES  18  12  79 W16G23    29.85R WCI   3
BUFFALO        FLURRIES  19  12  75 SW15G22   29.84R WCI   4
MAPLE LAKE     FLURRIES  19  13  77 W17G25    29.83R WCI   4
HUTCHINSON     CLOUDY    17  12  80 W22G30    29.88R WCI  -1
$$
MNZ037-044-045-052-053-070600-
   East Central Minnesota

CITY           SKY/WX    TMP DP  RH WIND       PRES   REMARKS
PRINCETON      FLURRIES  19  12  73 SW16G26   29.77R WCI   5
MORA           FLURRIES  19  12  73 W13G25    29.73R WCI   7
CAMBRIDGE      FLURRIES  21  10  63 W14G23    29.75R WCI   8
RUSH CITY      CLOUDY    19  12  73 SW18G25   29.74R WCI   4
MOOSE LAKE     FLURRIES  21  14  73 SW12G20   29.61R WCI   9
HINCKLEY       FLURRIES  21  16  79 SW14G23   29.69R WCI   8
CLOQUET        LGT SNOW  19  14  79 SW17G26   29.56R WCI   4
MCGREGOR       CLOUDY    21  16  79 SW13G21   29.61R WCI   9
$$
MNZ071>073-080-081-089-090-097-098-070600-
   Southwest Minnesota

CITY           SKY/WX    TMP DP  RH WIND       PRES   REMARKS
MONTEVIDEO     CLOUDY    16   9  73 NW15G24   29.93R WCI   1
GRANITE FALLS  CLEAR     15   9  76 W25       29.95R WCI  -4
CANBY          CLEAR     13   7  75 NW21G26   29.97R WCI  -5
MARSHALL       CLEAR     12   6  77 W26G33    29.94R WCI  -8
REDWOOD FALLS  MOCLDY    14   6  70 W20       29.93R WCI  -3
OLIVIA         PTCLDY    18  10  73 W28G35    29.90R WCI  -1
PIPESTONE      CLEAR     10   7  85 NW22G29   29.96R WCI  -9
WINDOM         PTCLDY    12   7  79 W23       29.95R WCI  -7
WORTHINGTON    PTCLDY    11   6  81 W17G26    29.98R WCI  -6
JACKSON        CLEAR     12   5  73 W29       29.96R WCI  -9
TRACY          CLEAR     14   8  77 W16G26    29.94R WCI  -2
SLAYTON        CLEAR     10   6  82 W31       29.94R WCI -12
$$
MNZ065>067-074>077-082>085-091>093-070600-
   South Central Minnesota

CITY           SKY/WX    TMP DP  RH WIND       PRES   REMARKS
MANKATO        FLURRIES  15   8  73 W22G31    29.93R WCI  -3
NEW ULM        MOCLDY    14   7  73 W21G30    29.94R WCI  -4
ST JAMES       MOCLDY    14   9  79 W21G26    29.97R WCI  -4
FAIRMONT       PTCLDY    14   8  77 W25G31    29.97R WCI  -5
GLENCOE        CLOUDY    17  12  81 W20G26    29.88R WCI   1
FARIBAULT      FLURRIES  18  10  73 W18G31    29.90R WCI   2
OWATONNA       FLURRIES  18  10  73 W17       29.90R WCI   2
WASECA         MOCLDY    18  10  73 W25G31    29.93R WCI  -1
ALBERT LEA     MOCLDY    19  12  73 W17G24    29.92R WCI   4
$$
MNZ078>079-086>088-094>096-070600-
   Southeast Minnesota

CITY           SKY/WX    TMP DP  RH WIND       PRES   REMARKS
ROCHESTER      FLURRIES  17  11  77 W23G32    29.88R WCI  -1
RED WING       FLURRIES  19   9  63 W17G29    29.86R WCI   4
STANTON        CLOUDY    19  11  71 W18G24    29.88R WCI   3
DODGE CENTER   FLURRIES  16  10  79 W25G36    29.88R WCI  -3
WINONA         CLOUDY    23  14  68 W10G17    29.91R WCI  12
AUSTIN         FLURRIES  18  10  73 W18G28    29.92R WCI   2
PRESTON        FLURRIES  17  12  78 W21G30    29.90R WCI   1
$$
ABBREVIATIONS USED IN REMARKS
   TC - TEMPERATURES IN CELSIUS
  WCI - WIND CHILL INDEX
   HX - HEAT INDEX
  VSB - VISIBILITY
$$




USA.gov is the U.S. government's official web portal to all federal, state and local government web resources and services.